CW2274 Weather Reports


time (UTC)temp
F
wind
direction
speed
knots
gust
knots
rain 1hr
in
rain 24hr
in
rain mn
in
humidity
%
barometer
mb
20260904044018 84 133 6.1 8.7 0.00 0.00 0.00 56 1015.6
20260904043513 84 95 2.6 7.8 0.00 0.00 0.00 57 1015.8
20260904043019 84 116 4.3 7.8 0.00 0.00 0.00 56 1015.5
20260904042513 84 96 4.3 7.8 0.00 0.00 0.00 56 1015.5
20260904042012 84 103 4.3 7.0 0.00 0.00 0.00 56 1015.6
20260904041526 84 98 3.5 7.0 0.00 0.00 0.00 56 1015.6
20260904041020 84 97 4.3 7.8 0.00 0.00 0.00 57 1015.6
20260904040515 84 90 3.5 7.0 0.00 0.00 0.00 58 1015.4
20260904040040 84 86 3.5 8.7 0.00 0.00 0.00 58 1015.5
20260904035524 84 108 5.2 8.7 0.00 0.00 0.00 58 1015.4
20260904035018 84 105 3.5 8.7 0.00 0.00 0.00 58 1015.3
20260904034513 84 113 4.3 7.8 0.00 0.00 0.00 58 1015.3
20260904034012 84 113 4.3 7.8 0.00 0.00 0.00 58 1015.2
20260904033527 84 91 2.6 7.8 0.00 0.00 0.00 57 1015.1
20260904033024 84 83 4.3 7.8 0.00 0.00 0.00 57 1015.1
20260904032019 84 82 3.5 6.1 0.00 0.00 0.00 56 1015.0
20260904031515 84 92 3.5 6.1 0.00 0.00 0.00 56 1014.8
20260904031031 85 129 1.7 5.2 0.00 0.00 0.00 56 1014.6
20260904030527 85 134 0.9 7.0 0.00 0.00 0.00 56 1014.5
20260904030040 85 111 2.6 7.0 0.00 0.00 0.00 57 1014.5
20260904025521 85 116 4.3 7.8 0.00 0.00 0.00 57 1014.5
20260904025017 85 175 3.5 7.8 0.00 0.00 0.00 56 1014.6
20260904024533 85 140 2.6 7.0 0.00 0.00 0.00 57 1014.4
20260904024029 85 188 3.5 9.6 0.00 0.00 0.00 56 1014.3
20260904023525 85 107 4.3 8.7 0.00 0.00 0.00 56 1014.2
20260904023021 85 140 3.5 7.8 0.00 0.00 0.00 55 1014.1
20260904022522 85 110 4.3 7.8 0.00 0.00 0.00 55 1014.1
20260904022018 85 117 5.2 7.8 0.00 0.00 0.00 54 1014.2
20260904021514 85 128 3.5 7.0 0.00 0.00 0.00 54 1014.1
20260904021031 86 130 3.5 7.0 0.00 0.00 0.00 54 1014.0
20260904020526 86 119 4.3 7.8 0.00 0.00 0.00 53 1014.0
20260904020033 86 151 2.6 7.8 0.00 0.00 0.00 53 1014.0
20260904015515 86 138 3.5 7.8 0.00 0.00 0.00 53 1013.9
20260904015015 86 142 3.5 7.8 0.00 0.00 0.00 52 1013.8
20260904014531 86 201 3.5 9.6 0.00 0.00 0.00 50 1013.6
20260904014027 86 133 3.5 7.8 0.00 0.00 0.00 50 1013.5
20260904013523 86 149 3.5 11.3 0.00 0.00 0.00 51 1013.6
20260904013019 86 181 4.3 13.9 0.00 0.00 0.00 51 1013.5
20260904012515 87 123 7.8 13.9 0.00 0.00 0.00 50 1013.6
20260904012031 88 141 5.2 11.3 0.00 0.00 0.00 46 1013.6
20260904011531 88 190 4.3 8.7 0.00 0.00 0.00 46 1013.4
20260904011027 89 159 2.6 8.7 0.00 0.00 0.00 46 1013.3
20260904010523 89 148 3.5 7.8 0.00 0.00 0.00 46 1013.2
20260904010030 89 174 3.5 7.8 0.00 0.00 0.00 45 1013.3
20260904005532 89 217 2.6 6.1 0.00 0.00 0.00 46 1013.3
20260904005028 89 235 3.5 6.1 0.00 0.00 0.00 46 1013.4
20260904004524 89 155 3.5 7.8 0.00 0.00 0.00 46 1013.4
20260904004024 89 135 4.3 9.6 0.00 0.00 0.00 47 1013.5
20260904003520 90 138 2.6 9.6 0.00 0.00 0.00 47 1013.4
20260904003016 90 196 3.5 8.7 0.00 0.00 0.00 47 1013.5
20260904002531 90 204 3.5 12.2 0.00 0.00 0.00 46 1013.4
20260904002027 90 215 6.1 12.2 0.00 0.00 0.00 46 1013.3
20260904001523 91 185 4.3 9.6 0.00 0.00 0.00 45 1013.2
20260904001019 91 135 3.5 9.6 0.00 0.00 0.00 44 1013.2
20260904000519 91 134 5.2 9.6 0.00 0.00 0.00 42 1013.2
20260904000028 92 110 3.5 9.6 0.00 0.00 0.00 43 1013.2
20260903235529 92 112 3.5 7.8 0.00 0.00 0.00 44 1013.3
20260903235025 91 225 4.3 7.8 0.00 0.00 0.00 46 1013.2
20260903234521 90 85 4.3 9.6 0.00 0.00 0.00 47 1013.4
20260903234017 90 60 5.2 9.6 0.00 0.00 0.00 48 1013.4
20260903233513 91 48 5.2 8.7 0.00 0.00 0.00 46 1013.4
20260903233013 91 49 4.3 8.7 0.00 0.00 0.00 46 1013.5
20260903232529 91 85 2.6 10.4 0.00 0.00 0.00 45 1013.5
20260903232025 91 120 7.0 8.7 0.00 0.00 0.00 45 1013.5
20260903231521 91 121 6.1 8.7 0.00 0.00 0.00 45 1013.6
20260903231017 91 137 4.3 7.8 0.00 0.00 0.00 46 1013.5
20260903230513 91 54 3.5 7.8 0.00 0.00 0.00 47 1013.6
20260903230040 91 69 1.7 6.1 0.00 0.00 0.00 44 1013.4
20260903225523 91 66 3.5 6.1 0.00 0.00 0.00 44 1013.5
20260903225023 92 67 3.5 7.8 0.00 0.00 0.00 43 1013.5
20260903224519 92 85 4.3 7.8 0.00 0.00 0.00 43 1013.4
20260903224015 92 29 2.6 5.2 0.00 0.00 0.00 43 1013.5
20260903223531 93 29 2.6 5.2 0.00 0.00 0.00 42 1013.6
20260903223027 90 323 1.7 5.2 0.00 0.00 0.00 45 1013.5
20260903222523 91 316 2.6 5.2 0.00 0.00 0.00 43 1013.6
20260903222019 91 291 0.9 3.5 0.00 0.00 0.00 44 1013.5
20260903221518 92 290 1.7 6.1 0.00 0.00 0.00 43 1013.8
20260903221033 92 24 1.7 4.3 0.00 0.00 0.00 44 1013.8
20260903220528 92 27 1.7 4.3 0.00 0.00 0.00 44 1013.9
20260903220037 92 31 0.9 4.3 0.00 0.00 0.00 43 1014.0
20260903215518 92 31 0.9 4.3 0.00 0.00 0.00 43 1013.9
20260903215014 92 33 1.7 4.3 0.00 0.00 0.00 44 1013.9
20260903214530 92 33 1.7 6.1 0.00 0.00 0.00 43 1014.1
20260903214030 93 296 2.6 7.0 0.00 0.00 0.00 43 1014.1
20260903213525 93 296 2.6 7.0 0.00 0.00 0.00 42 1014.2
20260903213021 93 312 2.6 6.1 0.00 0.00 0.00 43 1014.1
20260903212517 92 5 1.7 6.1 0.00 0.00 0.00 44 1014.0
20260903212013 92 5 0.9 5.2 0.00 0.00 0.00 43 1014.2
20260903211529 92 356 2.6 5.2 0.00 0.00 0.00 44 1014.1
20260903211026 91 330 2.6 7.0 0.00 0.00 0.00 45 1014.3
20260903210526 93 269 1.7 7.0 0.00 0.00 0.00 43 1014.2
20260903210033 94 288 1.7 7.0 0.00 0.00 0.00 42 1014.2
20260903205515 92 330 0.9 2.6 0.00 0.00 0.00 43 1014.4
20260903205029 90 330 1.7 4.3 0.00 0.00 0.00 44 1014.5
20260903204525 90 329 0.9 5.2 0.00 0.00 0.00 45 1014.8
20260903204021 92 329 0.9 5.2 0.00 0.00 0.00 43 1014.8
20260903203517 92 329 1.7 4.3 0.00 0.00 0.00 44 1014.7
20260903203017 92 329 2.6 4.3 0.00 0.00 0.00 43 1014.9
20260903202513 91 325 2.6 4.3 0.00 0.00 0.00 43 1014.9
20260903202029 91 312 2.6 4.3 0.00 0.00 0.00 44 1015.0
20260903201525 92 259 1.7 3.5 0.00 0.00 0.00 43 1015.2
20260903201021 91 257 0.9 3.5 0.00 0.00 0.00 44 1015.2
20260903200517 90 224 1.7 4.3 0.00 0.00 0.00 46 1015.3
20260903200045 91 224 1.7 4.3 0.00 0.00 0.00 45 1015.4
20260903195527 90 121 2.6 5.2 0.00 0.00 0.00 45 1015.5
20260903195027 91 116 3.5 5.2 0.00 0.00 0.00 45 1015.5
20260903194523 89 79 1.7 7.8 0.00 0.00 0.00 47 1015.7
20260903194019 89 79 2.6 7.8 0.00 0.00 0.00 47 1015.9
20260903193515 89 106 3.5 7.0 0.00 0.00 0.00 47 1015.9
20260903193031 89 102 3.5 7.0 0.00 0.00 0.00 46 1015.9
20260903192527 91 148 2.6 7.0 0.00 0.00 0.00 46 1016.0
20260903192023 90 96 2.6 6.1 0.00 0.00 0.00 46 1016.1
20260903191523 89 88 2.6 6.1 0.00 0.00 0.00 46 1016.2
20260903191019 90 71 0.9 3.5 0.00 0.00 0.00 46 1016.3
20260903190515 91 256 1.7 3.5 0.00 0.00 0.00 45 1016.3
20260903190042 91 256 1.7 3.5 0.00 0.00 0.00 47 1016.4
20260903185524 90 233 0.9 4.3 0.00 0.00 0.00 47 1016.5
20260903185020 90 233 0.9 4.3 0.00 0.00 0.00 47 1016.7
20260903184516 89 233 1.7 4.3 0.00 0.00 0.00 49 1016.9
20260903184016 88 220 1.7 5.2 0.00 0.00 0.00 50 1016.8
20260903183532 88 218 3.5 7.8 0.00 0.00 0.00 49 1017.0
20260903183028 87 93 2.6 7.8 0.00 0.00 0.00 52 1017.1
20260903182524 87 106 3.5 7.0 0.00 0.00 0.00 50 1017.2
20260903182020 87 116 2.6 7.0 0.00 0.00 0.00 49 1017.3
20260903181516 89 220 1.7 4.3 0.00 0.00 0.00 52 1017.4
20260903181032 86 219 1.7 4.3 0.00 0.00 0.00 52 1017.5
20260903180532 85 219 1.7 4.3 0.00 0.00 0.00 51 1017.5
20260903180039 86 219 1.7 4.3 0.00 0.00 0.00 52 1017.5
20260903175521 85 72 1.7 5.2 0.00 0.00 0.00 55 1017.7
20260903175016 85 72 2.6 7.0 0.00 0.00 0.00 55 1017.6
20260903174532 85 72 1.7 7.0 0.00 0.00 0.00 56 1017.7
20260903174028 84 69 1.7 6.1 0.00 0.00 0.00 56 1017.6
20260903173524 84 66 3.5 6.1 0.00 0.00 0.00 57 1017.7
20260903173024 85 102 2.6 5.2 0.00 0.00 0.00 56 1017.7
20260903172520 86 69 2.6 5.2 0.00 0.00 0.00 57 1017.8
20260903172016 84 113 2.6 3.5 0.00 0.00 0.00 56 1017.8
20260903171532 83 105 1.7 5.2 0.00 0.00 0.00 59 1017.7
20260903171028 83 108 2.6 5.2 0.00 0.00 0.00 60 1017.7
20260903170524 83 212 0.9 2.6 0.00 0.00 0.00 60 1017.8
20260903170033 83 145 0.9 4.3 0.00 0.00 0.00 61 1017.8
20260903165518 82 154 2.6 4.3 0.00 0.00 0.00 60 1017.7
20260903165015 82 286 1.7 3.5 0.00 0.00 0.00 59 1017.7
20260903164530 82 304 1.7 3.5 0.00 0.00 0.00 60 1017.7
20260903164026 82 295 1.7 3.5 0.00 0.00 0.00 61 1017.7
20260903163522 82 295 1.7 3.5 0.00 0.00 0.00 61 1017.7
20260903163018 82 297 1.7 3.5 0.00 0.00 0.00 64 1017.7
20260903162514 81 297 1.7 2.6 0.00 0.00 0.00 63 1017.7
20260903162014 82 298 1.7 2.6 0.00 0.00 0.00 63 1017.8
20260903161529 82 298 0.9 2.6 0.00 0.00 0.00 62 1017.9
20260903161025 82 298 0.9 4.3 0.00 0.00 0.00 62 1017.9
20260903160520 81 298 2.6 4.3 0.00 0.00 0.00 63 1017.8
20260903160047 81 298 1.7 3.5 0.00 0.00 0.00 62 1017.7
20260903155526 81 298 0.9 2.6 0.00 0.00 0.00 63 1017.7
20260903155022 81 298 0.9 2.6 0.00 0.00 0.00 62 1017.8
20260903154518 80 298 0.9 2.6 0.00 0.00 0.00 63 1017.8
20260903154018 80 298 1.7 2.6 0.00 0.00 0.00 65 1017.7
20260903153514 80 347 0.9 1.7 0.00 0.00 0.00 65 1017.7
20260903153030 80 347 0.9 1.7 0.00 0.00 0.00 65 1017.7
20260903152526 80 347 0.0 1.7 0.00 0.00 0.00 64 1017.6
20260903152022 80 347 0.0 1.7 0.00 0.00 0.00 66 1017.7
20260903151518 80 347 0.9 1.7 0.00 0.00 0.00 64 1017.8
20260903151014 79 347 0.9 2.6 0.00 0.00 0.00 66 1017.8
20260903150514 79 347 1.7 2.6 0.00 0.00 0.00 65 1017.8
20260903150042 80 347 1.7 2.6 0.00 0.00 0.00 66 1017.9
20260903145524 79 347 0.0 1.7 0.00 0.00 0.00 67 1017.7
20260903145021 79 347 0.9 3.5 0.00 0.00 0.00 67 1017.8
20260903144517 78 347 0.9 3.5 0.00 0.00 0.00 68 1017.9
20260903144014 79 347 0.0 3.5 0.00 0.00 0.00 69 1017.9
20260903143531 79 347 0.9 2.6 0.00 0.00 0.00 69 1017.8
20260903143031 78 348 0.9 2.6 0.00 0.00 0.00 69 1017.8
20260903142527 78 347 0.9 2.6 0.00 0.00 0.00 68 1017.8
20260903141526 78 347 0.9 2.6 0.00 0.00 0.00 65 1017.8
20260903141022 78 350 0.9 2.6 0.00 0.00 0.00 66 1017.8
20260903140518 77 353 0.9 3.5 0.00 0.00 0.00 66 1017.9
20260903140045 78 354 0.9 5.2 0.00 0.00 0.00 66 1017.9
20260903135526 78 360 1.7 5.2 0.00 0.00 0.00 66 1017.7
20260903135022 78 331 1.7 6.1 0.00 0.00 0.00 64 1017.7
20260903134522 79 358 2.6 6.1 0.00 0.00 0.00 64 1017.6
20260903134018 79 355 1.7 4.3 0.00 0.00 0.00 63 1017.5
20260903133514 79 354 1.7 3.5 0.00 0.00 0.00 63 1017.3
20260903133030 79 354 0.0 2.6 0.00 0.00 0.00 63 1017.2
20260903132526 79 354 0.9 2.6 0.00 0.00 0.00 61 1017.3
20260903132022 79 354 0.9 2.6 0.00 0.00 0.00 61 1017.2
20260903131518 79 354 0.0 1.7 0.00 0.00 0.00 63 1017.2
20260903131018 79 354 0.9 5.2 0.00 0.00 0.00 62 1017.0
20260903130514 79 354 1.7 8.7 0.00 0.00 0.00 61 1017.0
20260903130042 79 290 1.7 9.6 0.00 0.00 0.00 62 1016.9
20260903125524 79 272 5.2 9.6 0.00 0.00 0.00 62 1016.9
20260903125020 79 285 1.7 9.6 0.00 0.00 0.00 62 1016.9
20260903124516 79 256 6.1 9.6 0.00 0.00 0.00 64 1016.8
20260903124032 79 265 2.6 9.6 0.00 0.00 0.00 64 1016.7
20260903123532 79 277 2.6 9.6 0.00 0.00 0.00 62 1016.6
20260903123028 80 267 3.5 8.7 0.00 0.00 0.00 62 1016.7
20260903122524 79 225 1.7 3.5 0.00 0.00 0.00 64 1016.5
20260903122020 79 169 0.0 3.5 0.00 0.00 0.00 69 1016.6
20260903121516 79 169 0.0 4.3 0.00 0.00 0.00 69 1016.5
20260903121031 79 143 1.7 4.3 0.00 0.00 0.00 69 1016.6
20260903120527 79 114 2.6 3.5 0.00 0.00 0.00 70 1016.6
20260903120038 79 113 1.7 2.6 0.00 0.00 0.00 70 1016.5
20260903115520 79 113 0.9 2.6 0.00 0.00 0.00 70 1016.4
20260903115016 79 113 0.9 1.7 0.00 0.00 0.00 69 1016.4
20260903114532 79 113 0.9 0.9 0.00 0.00 0.00 69 1016.3
20260903114028 79 113 0.0 1.7 0.00 0.00 0.00 68 1016.3
20260903113524 79 113 0.9 1.7 0.00 0.00 0.00 68 1016.3
20260903113020 79 113 0.9 2.6 0.00 0.00 0.00 68 1016.3
20260903112519 79 113 1.7 2.6 0.00 0.00 0.00 68 1016.3
20260903112016 79 113 1.7 2.6 0.00 0.00 0.00 68 1016.3
20260903111531 79 114 1.7 3.5 0.00 0.00 0.00 68 1016.3
20260903111027 79 115 2.6 3.5 0.00 0.00 0.00 69 1016.3
20260903110523 79 115 1.7 3.5 0.00 0.00 0.00 69 1016.3
20260903110032 79 115 1.7 3.5 0.00 0.00 0.00 69 1016.2
20260903105513 79 117 1.7 4.3 0.00 0.00 0.00 69 1016.2
20260903105013 79 122 0.9 4.3 0.00 0.00 0.00 70 1016.3
20260903104529 79 122 2.6 4.3 0.00 0.00 0.00 69 1016.3
20260903104025 79 126 2.6 3.5 0.00 0.00 0.00 70 1016.3
20260903103521 79 127 1.7 2.6 0.00 0.00 0.00 70 1016.3
20260903103017 79 127 0.9 2.6 0.00 0.00 0.00 70 1016.4
20260903102513 79 127 1.7 3.5 0.00 0.00 0.00 69 1016.4
20260903102029 79 127 1.7 3.5 0.00 0.00 0.00 69 1016.3
20260903101524 79 127 0.9 2.6 0.00 0.00 0.00 69 1016.5
20260903101024 79 127 0.9 4.3 0.00 0.00 0.00 69 1016.4
20260903100520 79 127 1.7 4.3 0.00 0.00 0.00 69 1016.4
20260903100028 79 127 2.6 4.3 0.00 0.00 0.00 69 1016.5
20260903095530 80 127 1.7 3.5 0.00 0.00 0.00 69 1016.5
20260903095026 80 126 1.7 3.5 0.00 0.00 0.00 68 1016.5
20260903094522 80 127 1.7 3.5 0.00 0.00 0.00 68 1016.5
20260903094018 80 127 1.7 4.3 0.00 0.00 0.00 68 1016.4
20260903093518 81 126 1.7 3.5 0.00 0.00 0.00 68 1016.5
20260903093014 81 126 0.9 2.6 0.00 0.00 0.00 67 1016.5
20260903092530 81 126 0.9 2.6 0.00 0.00 0.00 66 1016.5
20260903092025 81 126 0.9 0.9 0.00 0.00 0.00 66 1016.4
20260903091520 81 126 0.0 0.9 0.00 0.00 0.00 65 1016.4
20260903091017 81 126 0.9 0.9 0.00 0.00 0.00 64 1016.4
20260903090512 81 126 0.0 0.0 0.00 0.00 0.00 65 1016.4
20260903090044 81 126 0.0 0.9 0.00 0.00 0.00 66 1016.5
20260903085526 81 126 0.0 0.9 0.00 0.00 0.00 64 1016.5
20260903085022 81 126 0.9 0.9 0.00 0.00 0.00 65 1016.5
20260903084517 81 126 0.0 0.9 0.00 0.00 0.00 64 1016.7
20260903084013 82 126 0.0 0.9 0.00 0.00 0.00 62 1016.7
20260903083529 81 126 0.0 0.9 0.00 0.00 0.00 63 1016.6
20260903083024 81 126 0.0 0.9 0.00 0.00 0.00 62 1016.6
20260903082524 81 126 0.0 0.9 0.00 0.00 0.00 62 1016.6
20260903082020 82 126 0.9 0.9 0.00 0.00 0.00 61 1016.6
20260903081515 82 126 0.0 0.9 0.00 0.00 0.00 62 1016.7
20260903081031 82 126 0.0 0.9 0.00 0.00 0.00 61 1016.6
20260903080527 82 126 0.9 0.9 0.00 0.00 0.00 61 1016.7
20260903080034 81 126 0.0 0.9 0.00 0.00 0.00 63 1016.7
20260903075515 82 126 0.0 2.6 0.00 0.00 0.00 62 1016.8
20260903075015 82 126 0.0 2.6 0.00 0.00 0.00 63 1016.7
20260903074531 82 126 0.9 1.7 0.00 0.00 0.00 61 1016.7
20260903074027 82 126 0.9 1.7 0.00 0.00 0.00 61 1016.8
20260903073522 82 126 0.0 1.7 0.00 0.00 0.00 59 1016.7
20260903073018 83 126 0.9 1.7 0.00 0.00 0.00 58 1016.8
20260903072514 82 126 0.0 0.9 0.00 0.00 0.00 60 1016.8
20260903072030 82 126 0.0 1.7 0.00 0.00 0.00 62 1016.8
20260903071526 82 126 0.0 2.6 0.00 0.00 0.00 62 1016.8
20260903071025 82 126 0.9 2.6 0.00 0.00 0.00 61 1016.7
20260903070521 82 126 0.9 1.7 0.00 0.00 0.00 61 1016.6
20260903070030 82 126 0.0 1.7 0.00 0.00 0.00 59 1016.5
20260903065531 82 126 0.0 1.7 0.00 0.00 0.00 61 1016.6
20260903065026 82 126 0.9 1.7 0.00 0.00 0.00 61 1016.5
20260903064522 82 126 0.0 1.7 0.00 0.00 0.00 61 1016.4
20260903064017 82 126 0.9 1.7 0.00 0.00 0.00 60 1016.4
20260903063517 83 126 0.9 1.7 0.00 0.00 0.00 60 1016.3
20260903063013 82 126 0.0 0.9 0.00 0.00 0.00 61 1016.4
20260903062529 82 126 0.0 0.9 0.00 0.00 0.00 61 1016.6
20260903062025 83 126 0.9 0.9 0.00 0.00 0.00 59 1016.5
20260903061520 82 126 0.0 1.7 0.00 0.00 0.00 61 1016.5
20260903061016 83 126 0.0 1.7 0.00 0.00 0.00 60 1016.6
20260903060512 83 126 0.9 1.7 0.00 0.00 0.00 59 1016.5
20260903060043 83 126 0.9 1.7 0.00 0.00 0.00 57 1016.5
20260903055525 82 126 0.9 0.9 0.00 0.00 0.00 66 1016.6
20260903055021 82 126 0.0 0.9 0.00 0.00 0.00 62 1016.5
20260903054517 82 126 0.0 0.9 0.00 0.00 0.00 61 1016.7
20260903054013 82 126 0.0 0.9 0.00 0.00 0.00 62 1016.6
20260903053528 82 126 0.0 0.9 0.00 0.00 0.00 62 1016.5
20260903053023 83 126 0.0 0.9 0.00 0.00 0.00 61 1016.5
20260903052523 83 126 0.0 1.7 0.00 0.00 0.00 62 1016.8
20260903052020 83 126 0.9 1.7 0.00 0.00 0.00 61 1016.6
20260903051515 83 126 0.9 1.7 0.00 0.00 0.00 61 1016.7
20260903051031 83 126 0.9 1.7 0.00 0.00 0.00 62 1016.6
20260903050520 83 126 1.7 1.7 0.00 0.00 0.00 63 1016.7
20260903050027 83 126 0.9 1.7 0.00 0.00 0.00 63 1016.6
20260903045529 83 126 0.0 0.9 0.00 0.00 0.00 62 1016.6
20260903045024 83 126 0.0 2.6 0.00 0.00 0.00 61 1016.6
20260903044524 83 126 0.9 2.6 0.00 0.00 0.00 61 1016.5